Weather observations for the past three days for
Wilmington, New Castle County Airport
Metric (Imperial)
Date Time (edt) Wind (kph) Vis. (km) Weather Sky Cond. Temperature (ºC) Relative Humidity Wind Chill (°C) Heat Index (°C) Pressure Precipitation (cm)
Air Dwpt 6 hour altimeter (cm) sea level (mb) 1 hr 3 hr 6 hr
Max. Min.
21 11:51 S 13 16.09 Fair CLR 30 22.2 63% 33 76.73 1022.8
21 10:51 S 6 16.09 Fair CLR 28.3 21.7 67% 31 76.73 1023.0
21 09:51 S 7 16.09 Fair CLR 27.2 21.1 69% 29 76.76 1023.2
21 08:51 SW 9 16.09 Fair CLR 25 20.6 77% 26 76.78 1023.6
21 07:51 S 7 16.09 Fair CLR 23.3 20 23.3 20 82% 76.81 1023.9
21 06:51 S 7 16.09 Fair CLR 21.7 19.4 87% 76.81 1023.8
21 05:51 S 7 16.09 Fair CLR 20 18.3 90% 76.81 1023.7
21 04:51 Calm 16.09 Fair CLR 20.6 18.3 87% 76.81 1023.7
21 03:51 Calm 16.09 Fair CLR 21.1 18.3 84% 76.81 1023.9
21 02:51 S 9 16.09 Fair CLR 21.7 17.8 79% 76.81 1024.0
21 01:51 S 7 16.09 Fair CLR 22.2 17.8 26.1 22.2 76% 76.86 1024.4
21 00:51 SW 11 16.09 Fair CLR 23.3 17.8 71% 76.86 1024.5
20 23:51 S 7 16.09 Fair CLR 23.3 21.7 91% 76.86 1024.6
20 22:51 S 9 16.09 Fair CLR 23.9 21.7 88% 24 76.86 1024.6
20 21:51 S 13 16.09 Fair CLR 24.4 21.1 82% 25 76.86 1024.5
20 20:51 S 15 16.09 Fair CLR 25.6 20.6 74% 27 76.84 1024.2
20 19:51 S 19 16.09 Fair CLR 26.1 20 30.6 26.1 69% 27 76.84 1024.1
20 18:51 S 24 16.09 Fair CLR 27.2 20 65% 29 76.84 1024.2
20 17:51 S 20 16.09 Fair CLR 28.9 20.6 61% 31 76.84 1024.4
20 16:51 S 20 16.09 Fair CLR 28.9 21.1 63% 31 76.89 1024.8
20 15:51 SE 20 16.09 Fair CLR 30 20.6 57% 32 76.94 1025.4
20 14:51 SE 20 16.09 Fair CLR 30.6 20 53% 33 76.96 1025.9
20 13:51 S 19 16.09 Partly Cloudy SCT044 30.6 20 30.6 23.3 53% 33 76.99 1026.3
20 12:51 S 15 16.09 Fair CLR 29.4 20 57% 31 77.04 1026.9
20 11:51 SW 13 16.09 A Few Clouds FEW038 28.9 19.4 57% 30 77.09 1027.5
20 10:51 W 9 16.09 Fair CLR 27.2 19.4 62% 29 77.11 1027.8
20 09:51 SW 9 16.09 Fair CLR 26.1 20 69% 27 77.11 1028.0
20 08:51 SW 13 16.09 Fair CLR 25 20 74% 26 77.11 1028.0
20 07:51 SW 9 16.09 Fair CLR 23.3 19.4 23.3 20 79% 77.09 1027.7
20 06:51 SW 7 16.09 Fair CLR 21.1 18.9 87% 77.06 1027.5
20 05:51 SW 7 16.09 Fair CLR 20 17.8 87% 77.06 1027.3
20 04:51 Calm 16.09 Fair CLR 20.6 17.8 84% 77.04 1027.0
20 03:51 Calm 16.09 Fair CLR 20.6 17.8 84% 77.04 1027.0
20 02:51 SW 6 16.09 Fair CLR 21.1 17.8 82% 77.04 1026.8
20 01:51 S 7 16.09 Fair CLR 21.7 17.8 25 21.7 79% 77.04 1026.8
20 00:51 SW 7 16.09 Fair CLR 22.2 17.8 76% 77.04 1027.0
19 23:51 S 13 16.09 Fair CLR 23.3 18.3 74% 77.06 1027.4
19 22:51 SE 11 16.09 Fair CLR 22.8 19.4 81% 77.09 1027.7
19 21:51 S 19 16.09 Fair CLR 23.9 18.3 71% 25 77.09 1027.5
19 20:51 S 20 16.09 Fair CLR 24.4 17.8 67% 25 77.04 1027.0
19 19:51 S 19 16.09 Fair CLR 25 18.3 30 25 66% 26 77.01 1026.8
19 18:51 S 24 16.09 Fair CLR 26.1 19.4 67% 27 77.01 1026.7
19 17:51 S 20 16.09 Fair CLR 27.8 20 63% 29 77.01 1026.6
19 16:51 S 19 16.09 Fair CLR 27.8 19.4 60% 29 77.04 1026.9
19 15:51 S 24 16.09 Fair CLR 28.9 18.9 55% 30 77.04 1027.0
19 14:51 S 20 16.09 Fair CLR 29.4 18.3 51% 30 77.04 1027.0
19 13:51 S 15 16.09 Fair CLR 28.9 19.4 28.9 22.8 57% 30 77.06 1027.4
19 12:51 SE 15 16.09 Fair CLR 28.3 19.4 59% 30 77.11 1027.8
19 11:51 SE 13 16.09 Fair CLR 27.8 20.6 65% 30 77.14 1028.2
19 10:51 S 15 16.09 Fair CLR 26.7 20 67% 28 77.14 1028.3
19 09:51 S 6 16.09 Fair CLR 26.1 20 69% 27 77.14 1028.4
19 08:51 S 7 16.09 A Few Clouds FEW018 24.4 20 77% 25 77.17 1028.6
19 07:51 S 9 16.09 Fair CLR 22.8 19.4 22.8 20 81% 77.14 1028.2
19 06:51 S 9 16.09 Fair CLR 21.1 18.3 84% 77.09 1027.6
19 05:51 S 9 16.09 Fair CLR 20 17.8 87% 77.06 1027.2
19 04:51 S 7 16.09 Fair CLR 20.6 17.8 84% 77.01 1026.7
19 03:51 S 9 16.09 Fair CLR 20.6 17.8 84% 77.01 1026.5
19 02:51 S 11 16.09 Fair CLR 21.1 17.2 79% 76.99 1026.1
19 01:51 S 13 16.09 Fair CLR 22.2 17.2 25.6 22.2 73% 76.96 1025.8
19 00:51 S 9 16.09 Fair CLR 22.8 17.8 74% 76.96 1025.8
18 23:51 SE 9 16.09 Fair CLR 22.8 19.4 81% 76.96 1025.8
18 22:51 SE 11 16.09 Fair CLR 22.8 18.3 76% 76.94 1025.6
18 21:51 SE 15 16.09 Fair CLR 23.3 17.2 69% 76.89 1025.0
18 20:51 SE 11 16.09 Fair CLR 24.4 15 56% 26 76.84 1024.4
18 19:51 SE 20 16.09 Fair CLR 25.6 13.3 30 25.6 47% 26 76.84 1024.2
18 18:51 S 19 16.09 Fair CLR 26.7 15.6 51% 27 76.81 1023.7
18 17:51 S 26 16.09 Fair CLR 27.8 18.9 58% 29 76.76 1023.3
18 16:51 S 26 16.09 Fair CLR 29.4 21.1 61% 32 76.81 1023.7
18 15:51 S 24 16.09 Fair CLR 30 22.2 63% 33 76.81 1023.8
18 14:51 S 20 16.09 Fair CLR 30 21.1 59% 33 76.84 1024.2
18 13:51 SE 19 16.09 Fair CLR 30 21.7 30 22.8 61% 33 76.84 1024.3
18 12:51 S 19 16.09 Fair CLR 28.9 21.1 63% 31 76.86 1024.7
Date Time (edt) Wind (kph) Vis. (km) Weather Sky Cond. Air Dwpt Max. Min. Relative Humidity Wind Chill (°C) Heat Index (°C) altimeter (cm) sea level (mb) 1 hr 3 hr 6 hr
6 hour
Temperature (ºC) Pressure Precipitation (cm)